Flag Weather past 2 weeks in Warminster Township, Pennsylvania, U.S.A.

Now
39 °F

Light rain. Overcast.


Feels Like: 33 °F
Forecast: 34 / 44 °F
Wind: 9 mph from North

Location: Doylestown Airport

Current Time: Nov 26, 2014 at 7:51:54 AM

Latest Report: Nov 26, 2014 at 6:54 AM


Visibility: 10 mi

Pressure: 30.14 "Hg

Humidity: 86%

Dew point: 35 °F

Location of Warminster TownshipLocation

Historic Weather in Warminster Township — Graph

°F

Warminster Township temperature yesterday

Maximum temperature yesterday: 63 °F (at 12:54 AM)
Minimum temperature yesterday: 39 °F (at 10:54 PM)
Average temperature yesterday: 50 °F

Past Weeks' High & Low Weather Summary

 TemperatureHumidityPressure
High69 °F (Nov 24, 12:54 PM)100% (Nov 11, 6:54 AM)30.53 "Hg (Nov 11, 6:54 AM)
Low18 °F (Nov 19, 4:54 AM)31% (Nov 23, 1:54 PM)29.53 "Hg (Nov 17, 3:54 PM)
Average39 °F66%30.07 "Hg
* Reported Nov 11 5:04 AM — Nov 26 5:54 AM, Warminster Township, Weather by CustomWeather, © 2014

Note: Actual official high and low records may vary slightly from our data, if they occured in-between our weather recording intervals... More about our weather records

Advertising

Warminster Township weather history for previous 24 hours

 ConditionsComfort  
Time TempWeatherWind HumidityBarometerVisibility
5:54 AM
Nov 26
42 °FLight rain. Overcast.9 mph68%30.09 "Hg10 mi
4:54 AM43 °FMostly cloudy.12 mph60%30.10 "Hg10 mi
3:54 AM41 °FOvercast.6 mph74%30.15 "Hg10 mi
2:54 AM40 °FOvercast.3 mph86%30.19 "Hg10 mi
1:54 AM41 °FPassing clouds.No wind80%30.19 "Hg10 mi
12:54 AM41 °FClear.No wind80%30.17 "Hg10 mi
11:54 PM
Nov 25
39 °FClear.No wind86%30.17 "Hg10 mi
10:54 PM39 °FClear.No wind82%30.18 "Hg10 mi
9:54 PM40 °FClear.No wind70%30.14 "Hg10 mi
8:54 PM40 °FClear.No wind70%30.12 "Hg10 mi
7:54 PM41 °FClear.3 mph67%30.11 "Hg10 mi
6:54 PM41 °FClear.No wind67%30.09 "Hg10 mi
5:54 PM45 °FClear.No wind56%30.06 "Hg10 mi
4:54 PM47 °FClear.3 mph52%30.03 "Hg10 mi
3:54 PM50 °FSunny.5 mph44%30.02 "Hg10 mi
2:54 PM51 °FSunny.5 mph42%30.01 "Hg10 mi
1:54 PM51 °FSunny.8 mph42%29.99 "Hg10 mi
12:54 PM51 °FSunny.10 mph42%30.01 "Hg10 mi
11:54 AM50 °FSunny.10 mph43%30.01 "Hg10 mi
10:54 AM50 °FSunny.7 mph46%30.03 "Hg10 mi
9:54 AM50 °FSunny.12 mph46%30.03 "Hg10 mi
8:54 AM50 °FSunny.14 mph50%30.00 "Hg10 mi
7:54 AM51 °FSunny.9 mph54%29.97 "Hg10 mi
Weather by CustomWeather, © 2014

See weather overviewHow to use our weather pages